Regional Weather Roundup
Issued by NWS

Home | Current Version | Previous Version | Graphics & Text | Print | Product List | Glossary On
Versions: 1 2 3 4 5 6 7 8 9 10 11 12 13 14 15 16 17 18 19 20 21 22 23 24 25 26 27 28 29 30 31 32 33 34 35 36 37 38 39 40 41 42 43 44 45 46 47 48 49 50
015
ASUS43 KFSD 200102
RWRSD

WEATHER ROUNDUP FOR SOUTH DAKOTA
NATIONAL WEATHER SERVICE SIOUX FALLS SD
700 PM CST THU JAN 19 2017

NOTE: "FAIR" INDICATES FEW OR NO CLOUDS BELOW 12,000 FEET WITH NO
SIGNIFICANT WEATHER AND/OR OBSTRUCTIONS TO VISIBILITY.


SDZ001>005-009-010-012>017-200200-
NORTHWEST AND NORTH CENTRAL SOUTH DAKOTA

CITY           SKY/WX    TMP DP  RH WIND       PRES   REMARKS
BUFFALO          N/A     32  24  72 W9        29.39S WCI  24
FAITH            N/A     20  18  92 W6        29.44F WCI  12
MOBRIDGE       CLOUDY    16  12  84 CALM      29.48S
$$

SDZ012>016-024>037-041>051-057-063-072>074-200200-
SOUTHWEST AND SOUTH CENTRAL SOUTH DAKOTA

CITY           SKY/WX    TMP DP  RH WIND       PRES   REMARKS
RAPID CTY ARPT CLOUDY    31  22  69 NW5       29.46R WCI  26
PIERRE         CLOUDY    18  15  88 N3        29.48S
CUSTER         CLOUDY    37  19  48 W8        29.48R
ELLSWORTH AFB  CLOUDY    37  23  56 N6        29.45S
PHILIP         CLOUDY    19  17  92 NW3       29.47R
PINE RIDGE     CLOUDY    30  26  85 SW7       29.47S WCI  23
SPEARFISH      FAIR      32  23  69 SW5       29.48R WCI  27
WINNER         FAIR      39  35  86 S15       29.48F
$$

SDZ004>011-016>023-039-040-200200-
NORTHEAST SOUTH DAKOTA

CITY           SKY/WX    TMP DP  RH WIND       PRES   REMARKS
ABERDEEN       FOG       33  32  96 SE9       29.56F VSB 3/4 WCI  25
WATERTOWN      CLOUDY    34  34 100 S13       29.57F FOG     WCI  25
BROOKINGS      FOG       35  34  96 SE16      29.60S VSB 3/4 WCI  25
SISSETON         N/A     35  35 100 SE8       29.59F WCI  29
$$

SDZ017-020-022-023-036>040-048>070-200200-
SOUTHEAST SOUTH DAKOTA

CITY           SKY/WX    TMP DP  RH WIND       PRES   REMARKS
SIOUX FALLS    FOG       37  37 100 SE10      29.62F VSB 1/2
HURON          CLOUDY    37  37 100 S13       29.55F FOG
CHAMBERLAIN    PTCLDY    37  37  99 SE7       29.51F
MITCHELL       CLOUDY    40  40 100 S15       29.57F FOG
YANKTON        CLOUDY    39  37  93 SE9       29.60F
$$

ABBREVIATIONS USED IN REMARKS
   TC - TEMPERATURE IN CELSIUS
  WCI - WIND CHILL INDEX
   HX - HEAT INDEX
  VSB - VISIBILITY





USA.gov is the U.S. government's official web portal to all federal, state and local government web resources and services.